Track STARLINK-2121 now! 10-day predictions STARLINK-2121 is classified as:
1 47399U 21005BC 21060.91667824 .00047185 00000-0 51701-3 0 9994 2 47399 53.0556 12.4269 0001227 55.7032 80.2049 15.62810590 6664